Date String (YYYY-MM-DD hh:mm:ss) UTC,Instrument flags,absolute air pressure of the measurement (hPa),sample flow rate (lpm),inlet stack bypass flow (lpm),air temperature of the measurement (°C),ambient temperature measured by the external sensor (°C),aerosol sample conditioner tube jacket temperature (°C),OPC LED temperature (°C),internal box temperature (°C),relative humidity of the measurement (%),span deviation,mass concentration of particles derived from Lorenz-Mie calculation of OPC scattering (μg/m³),mass concentration of particles derived from Lorenz-Mie calculation of OPC scattering (μg/m³),mass concentration of particles derived from Lorenz-Mie calculation of OPC scattering (μg/m³)
DateTimeUTC,F1_M11,P_M11,Q1_M11,Q2_M11,T1_M11,T2_M11,T3_M11,T4_M11,T5_M11,U1_M11,ZSPAN_M11,X0_M11,X2_M11,X1_M11
2024-02-07 02:00:00,SystemResetWarning,0819.7,4.99,000.00,023.7,023.0,000.0,032.1,025.5,15.0,0000.0,0003.44,0001.67,0001.24
2024-02-07 02:01:00,SystemResetWarning,0819.9,4.99,000.00,023.7,022.9,000.0,032.1,025.5,15.0,0000.0,0003.37,0001.69,0001.30
2024-02-07 02:02:00,SystemResetWarning,0819.8,5.02,000.00,023.7,022.9,000.0,032.1,025.4,15.1,0000.0,0003.20,0001.71,0001.36
2024-02-07 02:03:00,SystemResetWarning,0820.1,5.01,000.00,023.7,022.9,000.0,032.1,025.5,15.5,0000.0,0003.40,0001.81,0001.43
2024-02-07 02:04:00,SystemResetWarning,0819.9,4.99,000.00,023.7,022.9,000.0,032.1,025.4,15.4,0000.0,0003.99,0001.93,0001.49
2024-02-07 02:05:00,SystemResetWarning,0820.0,4.99,000.00,023.6,022.9,000.0,032.1,025.4,15.2,0000.0,0004.50,0001.96,0001.56
2024-02-07 02:06:00,SystemResetWarning,0819.9,5.00,000.00,023.6,022.9,000.0,032.1,025.4,15.0,0000.0,0004.86,0002.06,0001.62
2024-02-07 02:07:00,SystemResetWarning,0820.1,5.01,000.00,023.6,022.9,000.0,032.0,025.4,15.0,0000.0,0004.90,0002.17,0001.67
2024-02-07 02:08:00,SystemResetWarning,0819.8,5.00,000.00,023.6,022.9,000.0,032.0,025.4,15.3,0000.0,0005.03,0002.28,0001.73
2024-02-07 02:09:00,SystemResetWarning,0819.6,5.00,000.00,023.6,022.9,000.0,032.0,025.4,15.5,0000.0,0005.12,0002.33,0001.79
2024-02-07 02:10:00,SystemResetWarning,0819.7,5.01,000.00,023.6,022.9,000.0,032.0,025.4,15.4,0000.0,0005.13,0002.34,0001.83
2024-02-07 02:11:00,SystemResetWarning,0819.4,4.99,000.00,023.6,022.9,000.0,032.0,025.4,15.5,0000.0,0005.54,0002.44,0001.88
2024-02-07 02:12:00,SystemResetWarning,0819.4,4.98,000.00,023.6,022.9,000.0,032.0,025.4,15.9,0000.0,0005.63,0002.49,0001.89
2024-02-07 02:13:00,SystemResetWarning,0819.5,5.01,000.00,023.6,022.9,000.0,032.0,025.4,16.0,0000.0,0005.86,0002.46,0001.88
2024-02-07 02:14:00,SystemResetWarning,0819.4,5.01,000.00,023.6,022.8,000.0,032.0,025.4,15.8,0000.0,0005.94,0002.44,0001.86
2024-02-07 02:15:00,SystemResetWarning,0819.5,5.00,000.00,023.6,022.8,000.0,032.0,025.4,15.5,0000.0,0005.60,0002.41,0001.83
2024-02-07 02:16:00,SystemResetWarning,0819.4,5.00,000.00,023.6,022.8,000.0,032.0,025.4,15.5,0000.0,0005.00,0002.37,0001.80
2024-02-07 02:17:00,SystemResetWarning,0819.5,5.01,000.00,023.5,022.8,000.0,032.0,025.3,15.4,0000.0,0004.64,0002.32,0001.79
2024-02-07 02:18:00,SystemResetWarning,0819.7,5.00,000.00,023.5,022.8,000.0,032.0,025.3,15.4,0000.0,0004.43,0002.29,0001.78
2024-02-07 02:19:00,SystemResetWarning,0819.7,5.00,000.00,023.5,022.8,000.0,032.0,025.3,15.6,0000.0,0004.39,0002.27,0001.77
2024-02-07 02:20:00,SystemResetWarning,0819.8,5.00,000.00,023.5,022.8,000.0,032.0,025.3,16.1,0000.0,0004.34,0002.25,0001.74
2024-02-07 02:21:00,SystemResetWarning,0820.1,4.99,000.00,023.5,022.8,000.0,032.0,025.3,15.7,0000.0,0004.12,0002.19,0001.70
2024-02-07 02:22:00,SystemResetWarning,0820.0,4.99,000.00,023.5,022.8,000.0,032.0,025.3,15.5,0000.0,0003.83,0002.13,0001.68
2024-02-07 02:23:00,SystemResetWarning,0819.9,5.00,000.00,023.5,022.8,000.0,032.0,025.3,15.4,0000.0,0003.93,0002.07,0001.65
2024-02-07 02:24:00,SystemResetWarning,0819.9,5.01,000.00,023.5,022.8,000.0,032.0,025.2,15.3,0000.0,0003.77,0002.01,0001.62
2024-02-07 02:25:00,SystemResetWarning,0820.1,5.00,000.00,023.5,022.8,000.0,032.0,025.3,15.3,0000.0,0003.43,0001.96,0001.60
2024-02-07 02:26:00,SystemResetWarning,0820.3,4.99,000.00,023.5,022.8,000.0,032.0,025.3,15.2,0000.0,0003.28,0001.91,0001.59
2024-02-07 02:27:00,SystemResetWarning,0820.1,4.99,000.00,023.5,022.8,000.0,031.9,025.3,15.1,0000.0,0003.31,0001.93,0001.61
2024-02-07 02:28:00,SystemResetWarning,0820.0,4.99,000.00,023.5,022.7,000.0,031.9,025.2,15.1,0000.0,0003.05,0001.93,0001.61
2024-02-07 02:29:00,SystemResetWarning,0819.8,5.01,000.00,023.5,022.7,000.0,031.9,025.2,15.0,0000.0,0003.85,0001.91,0001.60
2024-02-07 02:30:00,SystemResetWarning,0819.7,5.00,000.00,023.5,022.7,000.0,031.9,025.3,15.0,0000.0,0004.63,0001.87,0001.60
2024-02-07 02:31:00,SystemResetWarning,0819.7,5.00,000.00,023.5,022.7,000.0,031.9,025.2,14.9,0000.0,0004.65,0001.87,0001.61
2024-02-07 02:32:00,SystemResetWarning,0819.6,5.00,000.00,023.5,022.7,000.0,031.9,025.2,14.9,0000.0,0004.82,0001.87,0001.62
2024-02-07 02:33:00,SystemResetWarning,0819.8,5.01,000.00,023.5,022.7,000.0,031.9,025.2,14.9,0000.0,0005.21,0001.86,0001.64
2024-02-07 02:34:00,SystemResetWarning,0819.8,5.00,000.00,023.5,022.7,000.0,031.9,025.2,14.9,0000.0,0005.53,0001.88,0001.66
2024-02-07 02:35:00,SystemResetWarning,0819.9,5.00,000.00,023.4,022.7,000.0,031.9,025.2,14.8,0000.0,0005.42,0001.94,0001.69
2024-02-07 02:36:00,SystemResetWarning,0819.6,5.00,000.00,023.4,022.7,000.0,031.9,025.2,14.7,0000.0,0005.79,0002.02,0001.73
2024-02-07 02:37:00,SystemResetWarning,0819.5,5.00,000.00,023.4,022.7,000.0,031.9,025.2,14.7,0000.0,0005.96,0002.06,0001.76
2024-02-07 02:38:00,SystemResetWarning,0819.5,5.00,000.00,023.4,022.7,000.0,031.9,025.2,14.6,0000.0,0005.90,0002.05,0001.77
2024-02-07 02:39:00,SystemResetWarning,0819.4,5.00,000.00,023.4,022.7,000.0,031.9,025.2,14.7,0000.0,0005.86,0002.06,0001.79
2024-02-07 02:40:00,SystemResetWarning,0819.4,5.00,000.00,023.4,022.7,000.0,031.9,025.2,14.8,0000.0,0005.21,0002.10,0001.83
2024-02-07 02:41:00,SystemResetWarning,0819.4,5.00,000.00,023.4,022.7,000.0,031.9,025.2,15.0,0000.0,0004.43,0002.20,0001.87
2024-02-07 02:42:00,SystemResetWarning,0819.5,5.00,000.00,023.4,022.7,000.0,031.9,025.2,15.1,0000.0,0005.06,0002.26,0001.87
2024-02-07 02:43:00,SystemResetWarning,0819.5,5.00,000.00,023.4,022.7,000.0,031.9,025.2,15.1,0000.0,0005.37,0002.30,0001.88
2024-02-07 02:44:00,SystemResetWarning,0819.5,5.00,000.00,023.4,022.7,000.0,031.9,025.2,15.2,0000.0,0005.02,0002.32,0001.89
2024-02-07 02:45:00,SystemResetWarning,0819.5,5.00,000.00,023.4,022.7,000.0,031.9,025.2,15.0,0000.0,0004.76,0002.35,0001.93
2024-02-07 02:46:00,SystemResetWarning,0819.5,5.00,000.00,023.4,022.7,000.0,031.9,025.2,15.0,0000.0,0004.85,0002.39,0001.96
2024-02-07 02:47:00,SystemResetWarning,0819.6,5.00,000.00,023.4,022.7,000.0,031.8,025.2,14.9,0000.0,0004.69,0002.39,0001.96
2024-02-07 02:48:00,SystemResetWarning,0819.5,5.00,000.00,023.4,022.7,000.0,031.9,025.2,14.8,0000.0,0004.58,0002.38,0001.96
2024-02-07 02:49:00,SystemResetWarning,0819.5,5.00,000.00,023.4,022.7,000.0,031.9,025.2,14.7,0000.0,0005.46,0002.39,0001.96
2024-02-07 02:50:00,SystemResetWarning,0819.4,5.00,000.00,023.4,022.7,000.0,031.9,025.2,14.8,0000.0,0005.96,0002.42,0001.97
2024-02-07 02:51:00,SystemResetWarning,0819.4,4.99,000.00,023.4,022.7,000.0,031.8,025.2,15.2,0000.0,0006.15,0002.43,0001.96
2024-02-07 02:52:00,SystemResetWarning,0819.5,5.00,000.00,023.4,022.7,000.0,031.8,025.2,15.6,0000.0,0006.06,0002.39,0001.96
2024-02-07 02:53:00,SystemResetWarning,0819.3,5.00,000.00,023.4,022.7,000.0,031.8,025.1,15.5,0000.0,0005.53,0002.36,0001.97
2024-02-07 02:54:00,SystemResetWarning,0819.4,5.00,000.00,023.4,022.6,000.0,031.8,025.2,15.5,0000.0,0005.11,0002.35,0001.98
2024-02-07 02:55:00,SystemResetWarning,0819.3,5.00,000.00,023.4,022.6,000.0,031.8,025.2,15.3,0000.0,0005.28,0002.37,0001.98
2024-02-07 02:56:00,SystemResetWarning,0819.4,5.01,000.00,023.4,022.6,000.0,031.8,025.2,15.0,0000.0,0005.07,0002.36,0001.95
2024-02-07 02:57:00,SystemResetWarning,0819.4,5.01,000.00,023.4,022.7,000.0,031.8,025.2,15.1,0000.0,0004.89,0002.31,0001.91
2024-02-07 02:58:00,SystemResetWarning,0819.4,5.01,000.00,023.4,022.7,000.0,031.8,025.1,15.2,0000.0,0004.75,0002.25,0001.88
2024-02-07 02:59:00,SystemResetWarning,0819.5,4.99,000.00,023.4,022.7,000.0,031.8,025.1,15.1,0000.0,0004.71,0002.22,0001.86
